TimeEDT,TemperatureF,Dew PointF,Humidity,Sea Level PressureIn,VisibilityMPH,Wind Direction,Wind SpeedMPH,Gust SpeedMPH,PrecipitationIn,Events,Conditions,WindDirDegrees,DateUTC
12:15 AM,55.8,17.4,22,29.97,10.0,SSE,4.6,-,N/A,,Clear,160,2013-04-07 04:15:00
12:35 AM,52.3,25.0,35,29.97,10.0,Calm,Calm,-,N/A,,Clear,0,2013-04-07 04:35:00
12:55 AM,57.2,21.6,25,29.97,10.0,South,4.6,-,N/A,,Clear,180,2013-04-07 04:55:00
1:15 AM,57.7,23.4,27,29.97,10.0,South,4.6,-,N/A,,Clear,180,2013-04-07 05:15:00
1:35 AM,58.1,24.6,28,29.97,10.0,South,5.8,-,N/A,,Clear,180,2013-04-07 05:35:00
1:55 AM,57.2,25.2,29,29.97,10.0,South,4.6,-,N/A,,Clear,180,2013-04-07 05:55:00
2:15 AM,57.0,26.2,31,29.96,10.0,South,5.8,-,N/A,,Clear,180,2013-04-07 06:15:00
2:35 AM,57.0,26.2,31,29.96,10.0,South,5.8,-,N/A,,Clear,180,2013-04-07 06:35:00
2:55 AM,56.8,26.6,31,29.95,10.0,South,5.8,-,N/A,,Clear,170,2013-04-07 06:55:00
3:15 AM,57.4,27.1,31,29.94,10.0,South,6.9,-,N/A,,Clear,180,2013-04-07 07:15:00
3:35 AM,57.6,27.5,32,29.94,10.0,South,6.9,-,N/A,,Clear,180,2013-04-07 07:35:00
3:55 AM,57.2,28.4,33,29.94,10.0,South,8.1,-,N/A,,Clear,180,2013-04-07 07:55:00
4:15 AM,57.2,29.1,34,29.94,10.0,South,6.9,-,N/A,,Clear,190,2013-04-07 08:15:00
4:35 AM,57.0,29.7,35,29.94,10.0,SSW,8.1,-,N/A,,Clear,200,2013-04-07 08:35:00
4:55 AM,57.2,30.4,36,29.94,10.0,South,8.1,-,N/A,,Clear,190,2013-04-07 08:55:00
5:15 AM,57.2,30.6,36,29.94,10.0,South,9.2,-,N/A,,Clear,190,2013-04-07 09:15:00
5:35 AM,56.3,31.3,39,29.94,10.0,South,5.8,-,N/A,,Clear,180,2013-04-07 09:35:00
5:55 AM,56.3,31.3,39,29.94,10.0,South,8.1,-,N/A,,Clear,190,2013-04-07 09:55:00
6:15 AM,56.3,31.8,39,29.94,10.0,SSW,8.1,-,N/A,,Clear,200,2013-04-07 10:15:00
6:35 AM,56.3,32.0,40,29.94,10.0,South,8.1,-,N/A,,Clear,190,2013-04-07 10:35:00
6:55 AM,55.6,32.0,41,29.94,10.0,South,9.2,-,N/A,,Clear,190,2013-04-07 10:55:00
7:15 AM,55.8,32.2,41,29.94,10.0,South,8.1,-,N/A,,Clear,190,2013-04-07 11:15:00
7:35 AM,56.3,32.5,41,29.95,10.0,SSW,10.4,-,N/A,,Clear,200,2013-04-07 11:35:00
7:55 AM,57.2,32.9,40,29.95,10.0,SSW,9.2,-,N/A,,Clear,200,2013-04-07 11:55:00
8:15 AM,58.1,32.9,39,29.96,10.0,SSW,11.5,-,N/A,,Scattered Clouds,200,2013-04-07 12:15:00
8:35 AM,59.0,33.3,38,29.95,10.0,SSW,11.5,17.3,N/A,,Scattered Clouds,200,2013-04-07 12:35:00
8:55 AM,59.9,33.4,37,29.95,10.0,SSW,10.4,17.3,N/A,,Scattered Clouds,200,2013-04-07 12:55:00
9:15 AM,61.0,34.0,36,29.95,10.0,SSW,11.5,19.6,N/A,,Scattered Clouds,200,2013-04-07 13:15:00
9:35 AM,61.7,34.3,36,29.96,10.0,SSW,10.4,17.3,N/A,,Mostly Cloudy,210,2013-04-07 13:35:00
9:55 AM,61.9,34.3,36,29.95,10.0,SSW,13.8,20.7,N/A,,Overcast,210,2013-04-07 13:55:00
10:15 AM,63.1,35.1,35,29.96,10.0,SSW,12.7,21.9,N/A,,Overcast,210,2013-04-07 14:15:00
10:35 AM,63.9,35.4,35,29.96,10.0,SW,17.3,21.9,N/A,,Mostly Cloudy,220,2013-04-07 14:35:00
10:55 AM,65.8,36.0,33,29.96,10.0,SW,11.5,23.0,N/A,,Scattered Clouds,220,2013-04-07 14:55:00
11:15 AM,66.4,36.5,33,29.97,10.0,SW,15.0,23.0,N/A,,Scattered Clouds,220,2013-04-07 15:15:00
11:35 AM,67.3,36.9,33,29.96,10.0,SW,18.4,31.1,N/A,,Scattered Clouds,220,2013-04-07 15:35:00
11:55 AM,67.8,37.9,33,29.96,10.0,SW,16.1,29.9,N/A,,Clear,220,2013-04-07 15:55:00
12:15 PM,69.8,39.4,33,29.96,10.0,SW,17.3,29.9,N/A,,Clear,230,2013-04-07 16:15:00
12:35 PM,69.4,39.6,34,29.95,10.0,SW,15.0,29.9,N/A,,Clear,230,2013-04-07 16:35:00
12:55 PM,69.1,39.6,34,29.95,10.0,WSW,18.4,28.8,N/A,,Scattered Clouds,240,2013-04-07 16:55:00
1:15 PM,70.2,40.1,34,29.94,10.0,SW,17.3,27.6,N/A,,Scattered Clouds,220,2013-04-07 17:15:00
1:35 PM,70.5,40.5,34,29.94,10.0,SSW,17.3,26.5,N/A,,Clear,210,2013-04-07 17:35:00
1:55 PM,71.8,41.4,33,29.94,10.0,SSW,15.0,27.6,N/A,,Clear,210,2013-04-07 17:55:00
2:15 PM,70.9,41.5,35,29.94,10.0,SW,15.0,27.6,N/A,,Scattered Clouds,230,2013-04-07 18:15:00
2:35 PM,72.7,42.1,33,29.93,10.0,WSW,19.6,26.5,N/A,,Scattered Clouds,240,2013-04-07 18:35:00
2:55 PM,70.3,42.3,36,29.94,10.0,SSW,16.1,26.5,N/A,,Mostly Cloudy,210,2013-04-07 18:55:00
3:15 PM,72.7,42.8,34,29.93,10.0,SW,13.8,27.6,N/A,,Scattered Clouds,220,2013-04-07 19:15:00
3:35 PM,72.9,42.8,34,29.93,10.0,SW,18.4,27.6,N/A,,Mostly Cloudy,230,2013-04-07 19:35:00
3:55 PM,70.7,43.7,38,29.94,10.0,WSW,13.8,21.9,N/A,,Overcast,240,2013-04-07 19:55:00
4:15 PM,71.6,44.4,38,29.94,10.0,SW,15.0,20.7,N/A,,Mostly Cloudy,220,2013-04-07 20:15:00
4:35 PM,73.0,44.2,36,29.94,10.0,WSW,18.4,25.3,N/A,,Mostly Cloudy,240,2013-04-07 20:35:00
4:55 PM,71.2,44.6,38,29.94,10.0,WSW,17.3,27.6,N/A,,Mostly Cloudy,250,2013-04-07 20:55:00
5:15 PM,70.3,44.2,39,29.95,10.0,WSW,17.3,24.2,N/A,,Overcast,240,2013-04-07 21:15:00
5:35 PM,70.0,44.8,40,29.95,10.0,SW,10.4,-,N/A,,Overcast,230,2013-04-07 21:35:00
5:55 PM,70.9,44.4,39,29.95,10.0,SW,15.0,21.9,N/A,,Overcast,230,2013-04-07 21:55:00
6:15 PM,70.9,44.4,39,29.96,10.0,WSW,11.5,21.9,N/A,,Mostly Cloudy,240,2013-04-07 22:15:00
6:35 PM,69.8,44.6,40,29.96,10.0,WSW,17.3,25.3,N/A,,Mostly Cloudy,240,2013-04-07 22:35:00
6:55 PM,69.8,44.6,40,29.96,10.0,SW,13.8,19.6,N/A,,Scattered Clouds,230,2013-04-07 22:55:00
7:15 PM,68.4,45.0,43,29.96,10.0,SW,9.2,-,N/A,,Clear,230,2013-04-07 23:15:00
7:35 PM,67.8,44.8,43,29.97,10.0,WSW,8.1,-,N/A,,Scattered Clouds,240,2013-04-07 23:35:00
7:55 PM,67.1,44.4,44,29.97,10.0,SW,4.6,-,N/A,,Scattered Clouds,230,2013-04-07 23:55:00
8:15 PM,66.2,44.1,45,29.97,10.0,SW,3.5,-,N/A,,Scattered Clouds,220,2013-04-08 00:15:00
8:35 PM,63.7,44.2,49,29.97,10.0,Calm,Calm,-,N/A,,Clear,0,2013-04-08 00:35:00
8:55 PM,63.3,44.1,49,29.98,10.0,SW,3.5,-,N/A,,Clear,220,2013-04-08 00:55:00
9:15 PM,62.4,44.1,51,29.98,10.0,Calm,Calm,-,N/A,,Clear,0,2013-04-08 01:15:00
9:35 PM,62.6,44.6,52,29.98,10.0,SW,6.9,-,N/A,,Scattered Clouds,230,2013-04-08 01:35:00
9:55 PM,65.3,43.9,46,29.99,10.0,SW,3.5,-,N/A,,Clear,230,2013-04-08 01:55:00
10:15 PM,62.8,44.8,52,29.99,10.0,Calm,Calm,-,N/A,,Scattered Clouds,0,2013-04-08 02:15:00
10:35 PM,61.3,45.3,56,30.00,10.0,NW,4.6,-,N/A,,Overcast,320,2013-04-08 02:35:00
10:55 PM,63.1,46.4,54,30.00,10.0,Calm,Calm,-,N/A,,Overcast,0,2013-04-08 02:55:00
11:15 PM,59.5,47.3,64,30.00,10.0,Calm,Calm,-,N/A,,Overcast,0,2013-04-08 03:15:00
11:35 PM,60.3,48.4,65,30.00,10.0,Calm,Calm,-,N/A,,Overcast,0,2013-04-08 03:35:00
11:55 PM,59.0,48.2,67,30.00,10.0,Calm,Calm,-,N/A,,Overcast,0,2013-04-08 03:55:00